1329091231899,18.3503
1329091291899,18.2728
1329091351899,18.3161
1329091411899,18.3175
1329091471899,18.3260
1329091531899,18.2754
1329091591899,18.3184
1329091651899,18.2523
1329091711899,18.2600
1329091771899,18.3495
1329091831899,18.2890
1329091891899,18.2866
1329091951899,18.2888
1329092011899,18.2893
1329092071899,18.3138
1329092131899,18.2522
1329092191899,18.3028
1329092251899,18.3524
1329092311899,18.3015
1329092371899,18.2912
1329092431899,18.3561
1329092491899,18.3786
1329092551899,18.3408
1329092611899,18.3027
1329092671899,18.3853
1329092731899,18.3713
1329092791899,18.4089
1329092851899,18.3805
1329092911899,18.3462
1329092971899,18.3275
1329093031899,18.2921
1329093091899,18.3162
1329093151899,18.2719
1329093211899,18.2621
1329093271899,18.3098
1329093331899,18.3006
1329093391899,18.3148
1329093451899,18.3078
1329093511899,18.3085
1329093571899,18.3198
1329093631899,18.3430
1329093691899,18.3721
1329093751899,18.3216
1329093811899,18.3563
1329093871899,18.3395
1329093931899,18.2985
1329093991899,18.2831
1329094051899,18.3440
1329094111899,18.3588
1329094171899,18.3735
1329094231899,18.4618
1329094291899,18.3940
1329094351899,18.3837
1329094411899,18.3084
1329094471899,18.3027
1329094531899,18.3422
1329094591899,18.3234
1329094651899,18.2865
1329094711899,18.3431
1329094771899,18.3222
1329094831910,18.3270
1329094891910,18.3386
1329094951910,18.3433
1329095011910,18.3619
1329095071910,18.3725
1329095131910,18.3387
1329095191910,18.3342
1329095251910,18.3681
1329095311910,18.2685
1329095371910,18.3004
1329095431910,18.2952
1329095491910,18.2587
1329095551910,18.3587
1329095611910,18.2819
1329095671910,18.3069
1329095731910,18.3444
1329095791910,18.2232
1329095851910,18.2771
1329095911910,18.3204
1329095971910,18.2989
1329096031910,18.3355
1329096091910,18.3146
1329096151910,18.2764
1329096211910,18.3291
1329096271910,18.3285
1329096331910,18.3201
1329096391910,18.2887
1329096451910,18.3025
1329096511910,18.3115
1329096571910,18.3005
1329096631910,18.2993
1329096691910,18.3098
1329096751910,18.3158
1329096811910,18.3017
1329096871910,18.2847
1329096931910,18.2716
1329096991910,18.3928
1329097051910,18.3047
1329097111910,18.3155
1329097171910,18.2835
1329097231910,18.3341
1329097291910,18.3195
1329097351910,18.3349
1329097411910,18.3348
1329097471910,18.2982
1329097531910,18.3233
1329097591910,18.3069
1329097651910,18.3084
1329097711910,18.2998
1329097771910,18.3257
1329097831910,18.2786
1329097891910,18.3078
1329097951910,18.2762
1329098011910,18.2915
1329098071910,18.3157
1329098131910,18.3065
1329098191910,18.3235
1329098251910,18.3180
1329098311910,18.2873
1329098371910,18.2355
1329098431921,18.3050
1329098491921,18.2705
1329098551921,18.3642
1329098611921,18.2991
1329098671921,18.3077
1329098731921,18.2869
1329098791921,18.2921
1329098851921,18.3380
1329098911921,18.3734
1329098971921,18.3433
1329099031921,18.3610
1329099091921,18.3619
1329099151921,18.3210
1329099211921,18.3508
1329099271921,18.3191
1329099331921,18.3433
1329099391921,18.3203
1329099451921,18.3029
1329099511921,18.3108
1329099571921,18.3097
1329099631921,18.3344
1329099691921,18.2811
1329099751921,18.3379
1329099811921,18.3413
1329099871921,18.2992
1329099931921,18.3016
1329099991921,18.3242
1329100051921,18.2778
1329100111921,18.2953
1329100171921,18.3322
1329100231921,18.3059
1329100291921,18.2766
1329100351921,18.3216
1329100411921,18.3474
1329100471921,18.3362
1329100531921,18.3281
1329100591921,18.3626
1329100651921,18.2778
1329100711921,18.3775
1329100771921,18.3340
1329100831921,18.3105
1329100891921,18.2602
1329100951921,18.2865
1329101011921,18.2612
1329101071921,18.2636
1329101131921,18.2377
1329101191921,18.2461
1329101251921,18.2486
1329101311921,18.2841
1329101371921,18.2345
1329101431921,18.2492
1329101491921,18.2065
1329101551921,18.2702
1329101611921,18.3403
1329101671921,18.3033
1329101731921,18.3091
1329101791921,18.3001
1329101851921,18.2824
1329101911921,18.3246
1329101971921,18.2479
1329102031932,18.2922
1329102091932,18.2808
1329102151932,18.2967
1329102211932,18.2495
1329102271932,18.3152
1329102331932,18.3097
1329102391932,18.2808
1329102451932,18.2895
1329102511932,18.2703
1329102571932,18.3069
1329102631932,18.3546
1329102691932,18.3012
1329102751932,18.2771
1329102811932,18.3088
1329102871932,18.3017
1329102931932,18.2963
1329102991932,18.3175
1329103051932,18.3342
1329103111932,18.2991
1329103171932,18.2911
1329103231932,18.2889
1329103291932,18.2952
1329103351932,18.2704
1329103411932,18.2951
1329103471932,18.2720
1329103531932,18.3065
1329103591932,18.2459
1329103651932,18.2990
1329103711932,18.3323
1329103771932,18.2542
1329103831932,18.2776
1329103891932,18.2825
1329103951932,18.2751
1329104011932,18.2882
1329104071932,18.3128
1329104131932,18.2677
1329104191932,18.2888
1329104251932,18.3055
1329104311932,18.2843
1329104371932,18.3359
1329104431932,18.2889
1329104491932,18.3436
1329104551932,18.3900
1329104611932,18.3296
1329104671932,18.3719
1329104731932,18.2901
1329104791932,18.3158
1329104851932,18.3305
1329104911932,18.3176
1329104971932,18.2771
1329105031932,18.2612
1329105091932,18.2725
1329105151932,18.2687
1329105211932,18.1926
1329105271932,18.2562
1329105331932,18.3125
1329105391932,18.2211
1329105451932,18.3268
1329105511932,18.2885
1329105571932,18.2967
1329105631943,18.2755
1329105691943,18.2935
1329105751943,18.2985
1329105811943,18.3609
1329105871943,18.2996
1329105931943,18.3114
1329105991943,18.2783
1329106051943,18.2757
1329106111943,18.3081
1329106171943,18.3066
1329106231943,18.2664
1329106291943,18.3094
1329106351943,18.2102
1329106411943,18.2715
1329106471943,18.2518
1329106531943,18.2585
1329106591943,18.2313
1329106651943,18.2693
1329106711943,18.2905
1329106771943,18.2369
1329106831943,18.2602
1329106891943,18.3105
1329106951943,18.3161
1329107011943,18.2837
1329107071943,18.3246
1329107131943,18.2510
1329107191943,18.2861
1329107251943,18.3091
1329107311943,18.3078
1329107371943,18.3151
1329107431943,18.2892
1329107491943,18.2614
1329107551943,18.2793
1329107611943,18.3155
1329107671943,18.2830
1329107731943,18.2888
1329107791943,18.2812
1329107851943,18.2266
1329107911943,18.3018
1329107971943,18.2890
1329108031943,18.3201
1329108091943,18.2565
1329108151943,18.2561
1329108211943,18.3325
1329108271943,18.2332
1329108331943,18.2175
1329108391943,18.3038
1329108451943,18.2188
1329108511943,18.2288
1329108571943,18.2722
1329108631943,18.2305
1329108691943,18.2464
1329108751943,18.2635
1329108811943,18.3076
1329108871943,18.2755
1329108931943,18.2707
1329108991943,18.2446
1329109051943,18.2017
1329109111943,18.2414
1329109171943,18.2469
1329109231955,18.2256
1329109291955,18.2497
1329109351955,18.2151
1329109411955,18.2795
1329109471955,18.2616
1329109531955,18.2499
1329109591955,18.2972
1329109651955,18.2482
1329109711955,18.2615
1329109771955,18.3013
1329109831955,18.2369
1329109891955,18.3113
1329109951955,18.2988
1329110011955,18.2220
1329110071955,18.2399
1329110131955,18.2355
1329110191955,18.2313
1329110251955,18.2532
1329110311955,18.2387
1329110371955,18.2419
1329110431955,18.2613
1329110491955,18.2950
1329110551955,18.2899
1329110611955,18.3169
1329110671955,18.3506
1329110731955,18.2932
1329110791955,18.2628
1329110851955,18.3483
1329110911955,18.3104
1329110971955,18.3003
1329111031955,18.3924
1329111091955,18.3486
1329111151955,18.3096
1329111211955,18.3225
1329111271955,18.3223
1329111331955,18.2758
1329111391955,18.2810
1329111451955,18.3616
1329111511955,18.3099
1329111571955,18.2883
1329111631955,18.2949
1329111691955,18.2841
1329111751955,18.2996
1329111811955,18.3385
1329111871955,18.3350
1329111931955,18.3125
1329111991955,18.3295
1329112051955,18.3143
1329112111955,18.3034
1329112171955,18.3692
1329112231955,18.2824
1329112291955,18.4308
1329112351955,18.3593
1329112411955,18.3183
1329112471955,18.3577
1329112531955,18.3171
1329112591955,18.3434
1329112651955,18.3369
1329112711955,18.3369
1329112771955,18.3427
1329112831966,18.3105
1329112891966,18.2680
1329112951966,18.3383
1329113011966,18.3530
1329113071966,18.3403
1329113131966,18.3665
1329113191966,18.3884
1329113251966,18.3309
1329113311966,18.3616
1329113371966,18.3842
1329113431966,18.3276
1329113491966,18.3499
1329113551966,18.3604
1329113611966,18.3484
1329113671966,18.3295
1329113731966,18.3454
1329113791966,18.2953
1329113851966,18.3086
1329113911966,18.2969
1329113971966,18.3328
1329114031966,18.3050
1329114091966,18.2837
1329114151966,18.2909
1329114211966,18.3399
1329114271966,18.3283
1329114331966,18.2600
1329114391966,18.3219
1329114451966,18.2813
1329114511966,18.3162
1329114571966,18.3186
1329114631966,18.3184
1329114691966,18.3615
1329114751966,18.3211
1329114811966,18.3299
1329114871966,18.3478
1329114931966,18.3559
1329114991966,18.3498
1329115051966,18.3281
1329115111966,18.3092
1329115171966,18.3340
1329115231966,18.2616
1329115291966,18.3190
1329115351966,18.3481
1329115411966,18.3266
1329115471966,18.3523
1329115531966,18.3281
1329115591966,18.3427
1329115651966,18.3377
1329115711966,18.3175
1329115771966,18.3320
1329115831966,18.3088
1329115891966,18.2843
1329115951966,18.3793
1329116011966,18.3544
1329116071966,18.3657
1329116131966,18.3842
1329116191966,18.3365
1329116251966,18.3905
1329116311966,18.3352
1329116371966,18.3402
1329116431978,18.2839
1329116491978,18.2718
1329116551978,18.2966
1329116611978,18.2899
1329116671978,18.3578
1329116731978,18.2925
1329116791978,18.2998
1329116851978,18.3356
1329116911978,18.2691
1329116971978,18.3007
1329117031978,18.3163
1329117091978,18.2598
1329117151978,18.2625
1329117211978,18.2777
1329117271978,18.3118
1329117331978,18.2869
1329117391978,18.2932
1329117451978,18.2652
1329117511978,18.2690
1329117571978,18.3566
1329117631978,18.3138
1329117691978,18.3383
1329117751978,18.3335
1329117811978,18.3007
1329117871978,18.3526
1329117931978,18.3361
1329117991978,18.3277
1329118051978,18.3316
1329118111978,18.3261
1329118171978,18.3537
1329118231978,18.3931
1329118291978,18.3041
1329118351978,18.2801
1329118411978,18.3602
1329118471978,18.3230
1329118531978,18.4171
1329118591978,18.3426
1329118651978,18.3835
1329118711978,18.3595
1329118771978,18.3572
1329118831978,18.4016
1329118891978,18.3550
1329118951978,18.3278
1329119011978,18.3578
1329119071978,18.3515
1329119131978,18.3681
1329119191978,18.1980
1329119251978,18.3187
1329119311978,18.3590
1329119371978,18.3219
1329119431978,18.3250
1329119491978,18.3014
1329119551978,18.3074
1329119611978,18.3136
1329119671978,18.3900
1329119731978,18.3727
1329119791978,18.3322
1329119851978,18.3706
1329119911978,18.3455
1329119971978,18.3294
1329120031989,18.3200
1329120091989,18.3123
1329120151989,18.3392
1329120211989,18.3152
1329120271989,18.2748
1329120331989,18.2613
1329120391989,18.2818
1329120451989,18.2821
1329120511989,18.2974
1329120571989,18.3143
1329120631989,18.2759
1329120691989,18.3005
1329120751989,18.2886
1329120811989,18.2743
1329120871989,18.2630
1329120931989,18.2579
1329120991989,18.2139
1329121051989,18.2237
1329121111989,18.2904
1329121171989,18.3300
1329121231989,18.2708
1329121291989,18.2552
1329121351989,18.3489
1329121411989,18.2956
1329121471989,18.2627
1329121531989,18.2946
1329121591989,18.2785
1329121651989,18.2612
1329121711989,18.2279
1329121771989,18.1958
1329121831989,18.2706
1329121891989,18.2669
1329121951989,18.2936
1329122011989,18.3080
1329122071989,18.2925
1329122131989,18.3260
1329122191989,18.2814
1329122251989,18.2795
1329122311989,18.2649
1329122371989,18.2232
1329122431989,18.2829
1329122491989,18.2528
1329122551989,18.2836
1329122611989,18.2653
1329122671989,18.2641
1329122731989,18.2602
1329122791989,18.2458
1329122851989,18.2763
1329122911989,18.3006
1329122971989,18.2601
1329123031989,18.2872
1329123091989,18.2543
1329123151989,18.2200
1329123211989,18.2439
1329123271989,18.2651
1329123331989,18.2233
1329123391989,18.2642
1329123451989,18.2683
1329123511989,18.3313
1329123571989,18.3029
1329123632001,18.2777
1329123692001,18.2323
1329123752001,18.3159
1329123812001,18.3679
1329123872001,18.2846
1329123932001,18.2938
1329123992001,18.3173
1329124052001,18.3131
1329124112001,18.3455
1329124172001,18.3184
1329124232001,18.2832
1329124292001,18.3009
1329124352001,18.3541
1329124412001,18.3657
1329124472001,18.3268
1329124532001,18.3393
1329124592001,18.3508
1329124652001,18.3426
1329124712001,18.3051
1329124772001,18.2694
1329124832001,18.3415
1329124892001,18.3631
1329124952001,18.2751
1329125012001,18.3933
1329125072001,18.2720
1329125132001,18.3570
1329125192001,18.3453
1329125252001,18.3344
1329125312001,18.3418
1329125372001,18.3355
1329125432001,18.3212
1329125492001,18.3590
1329125552001,18.3638
1329125612001,18.3858
1329125672001,18.3614
1329125732001,18.3497
1329125792001,18.3539
1329125852001,18.3585
1329125912001,18.2342
1329125972001,18.3654
1329126032001,18.3036
1329126092001,18.3599
1329126152001,18.3524
1329126212001,18.3469
1329126272001,18.3450
1329126332001,18.3287
1329126392001,18.3675
1329126452001,18.3628
1329126512001,18.3720
1329126572001,18.3333
1329126632001,18.2911
1329126692001,18.3269
1329126752001,18.3746
1329126812001,18.2900
1329126872001,18.3627
1329126932001,18.3227
1329126992001,18.3185
1329127052001,18.3499
1329127112001,18.2875
1329127172001,18.3515
1329127232013,18.3014
1329127292013,18.2972
1329127352013,18.2729
1329127412013,18.3522
1329127472013,18.3293
1329127532013,18.1598
1329127592013,18.3503
1329127652013,18.2895
1329127712013,18.3361
1329127772013,18.3393
1329127832013,18.3341
1329127892013,18.3550
1329127952013,18.3073
1329128012013,18.3480
1329128072013,18.3313
1329128132013,18.3299
1329128192013,18.2849
1329128252013,18.3281
1329128312013,18.3499
1329128372013,18.3444
1329128432013,18.3358
1329128492013,18.3037
1329128552013,18.3418
1329128612013,18.3500
1329128672013,18.3378
1329128732013,18.3051
1329128792013,18.3233
1329128852013,18.3500
1329128912013,18.3447
1329128972013,18.3303
1329129032013,18.3262
1329129092013,18.3596
1329129152013,18.3512
1329129212013,18.3459
1329129272013,18.3393
1329129332013,18.3701
1329129392013,18.3784
1329129452013,18.3737
1329129512013,18.3496
1329129572013,18.3463
1329129632013,18.3404
1329129692013,18.3378
1329129752013,18.3445
1329129812013,18.3071
1329129872013,18.3631
1329129932013,18.3500
1329129992013,18.2663
1329130052013,18.3111
1329130112013,18.3414
1329130172013,18.2856
1329130232013,18.3292
1329130292013,18.2884
1329130352013,18.3177
1329130412013,18.3329
1329130472013,18.2661
1329130532013,18.3004
1329130592013,18.3338
1329130652013,18.3339
1329130712013,18.3117
1329130772013,18.2620
1329130832024,18.2756
1329130892024,18.3129
1329130952024,18.2855
1329131012024,18.2685
1329131072024,18.2649
1329131132024,18.2828
1329131192024,18.2714
1329131252024,18.2784
1329131312024,18.2777
1329131372024,18.2851
1329131432024,18.3083
1329131492024,18.2058
1329131552024,18.2345
1329131612024,18.2000
1329131672024,18.2394
1329131732024,18.2679
1329131792024,18.3042
1329131852024,18.2663
1329131912024,18.1969
1329131972024,18.2483
1329132032024,18.2283
1329132092024,18.2577
1329132152024,18.2561
1329132212024,18.2388
1329132272024,18.2157
1329132332024,18.2493
1329132392024,18.1766
1329132452024,18.2008
1329132512024,18.1377
1329132572024,18.1987
1329132632024,18.1996
1329132692024,18.2394
1329132752024,18.2390
1329132812024,18.3030
1329132872024,18.2403
1329132932024,18.2668
1329132992024,18.2665
1329133052024,18.3006
1329133112024,18.2335
1329133172024,18.2879
1329133232024,18.3221
1329133292024,18.3166
1329133352024,18.2519
1329133412024,18.3280
1329133472024,18.3220
1329133532024,18.2977
1329133592024,18.3080
1329133652024,18.3555
1329133712024,18.3075
1329133772024,18.2779
1329133832024,18.2522
1329133892024,18.2309
1329133952024,18.2414
1329134012024,18.3005
1329134072024,18.3296
1329134132024,18.3542
1329134192024,18.3239
1329134252024,18.3137
1329134312024,18.3269
1329134372024,18.3400
1329134432036,18.3177
1329134492036,18.2911
1329134552036,18.2531
1329134612036,18.3962
1329134672036,18.2442
1329134732036,18.2860
1329134792036,18.2382
1329134852036,18.2759
1329134912036,18.2187
1329134972036,18.2789
1329135032036,18.2292
1329135092036,18.2873
1329135152036,18.2622
1329135212036,18.2476
1329135272036,18.2342
1329135332036,18.2694
1329135392036,18.2330
1329135452036,18.3161
1329135512036,18.2877
1329135572036,18.3778
1329135632036,18.2847
1329135692036,18.3474
1329135752036,18.3362
1329135812036,18.3719
1329135872036,18.3426
1329135932036,18.4031
1329135992036,18.4005
1329136052036,18.3807
1329136112036,18.4035
1329136172036,18.3739
1329136232036,18.3550
1329136292036,18.4281
1329136352036,18.3719
1329136412036,18.3937
1329136472036,18.3721
1329136532036,18.3215
1329136592036,18.3525
1329136652036,18.2971
1329136712036,18.3843
1329136772036,18.3264
1329136832036,18.2898
1329136892036,18.2918
1329136952036,18.3277
1329137012036,18.2890
1329137072036,18.2904
1329137132036,18.3458
1329137192036,18.3354
1329137252036,18.3319
1329137312036,18.3996
1329137372036,18.3240
1329137432036,18.3640
1329137492036,18.3198
1329137552036,18.3049
1329137612036,18.2919
1329137672036,18.3048
1329137732036,18.2876
1329137792036,18.3558
1329137852036,18.3640
1329137912036,18.2938
1329137972036,18.3362
1329138032048,18.3635
1329138092048,18.3359
1329138152048,18.3648
1329138212048,18.4038
1329138272048,18.4017
1329138332048,18.3709
1329138392048,18.4225
1329138452048,18.3843
1329138512048,18.3755
1329138572048,18.3198
1329138632048,18.3719
1329138692048,18.3196
1329139232048,18.3310
1329139292048,18.2780
1329139352048,18.3022
1329139412048,18.2912
1329139472048,18.3379
1329139532048,18.3182
1329139592048,18.3209
1329139652048,18.3363
1329139712048,18.3246
1329139772048,18.3421
1329139832048,18.3754
1329139892048,18.3467
1329139952048,18.3775
1329140012048,18.2975
1329140072048,18.3320
1329140132048,18.3961
1329140192048,18.3550
1329140252048,18.3444
1329140312048,18.3401
1329140372048,18.3451
1329140432048,18.3160
1329140492048,18.3207
1329140552048,18.3997
1329140612048,18.3158
1329140672048,18.3260
1329140732048,18.3213
1329140792048,18.3712
1329140852048,18.3414
1329140912048,18.3728
1329140972048,18.3039
1329141032048,18.3281
1329141092048,18.3614
1329141152048,18.3602
1329141212048,18.3328
1329141272048,18.3597
1329141332048,18.3518
1329141392048,18.3850
1329141452048,18.3998
1329141512048,18.3491
1329141572048,18.3802
1329141632060,18.3281
1329141692060,18.3540
1329141752060,18.3617
1329141812060,18.3391
1329141872060,18.3723
1329141932060,18.3245
1329141992060,18.3098
1329142052060,18.3445
1329142112060,18.3039
1329142172060,18.3573
1329142232060,18.3336
1329142292060,18.3813
1329142352060,18.3393
1329142412060,18.3753
1329142472060,18.3488
1329142532060,18.3730
1329142592060,18.3418
1329142652060,18.3413
1329142712060,18.3691
1329142772060,18.3783
1329142832060,18.3502
1329142892060,18.3430
1329142952060,18.3443
1329143012060,18.3336
1329143072060,18.3587
1329143132060,18.3598
1329143192060,18.2996
1329143252060,18.3271
1329143312060,18.2953
1329143372060,18.3064
1329143432060,18.3470
1329143492060,18.3181
1329143552060,18.3360
1329143612060,18.3846
1329143672060,18.3087
1329143732060,18.3305
1329143792060,18.3554
1329143852060,18.3630
1329143912060,18.3718
1329143972060,18.3992
1329144032060,18.3641
1329144092060,18.3844
1329144152060,18.3631
1329144212060,18.3694
1329144272060,18.3652
1329144332060,18.3955
1329144392060,18.3798
1329144452060,18.3457
1329144512060,18.3016
1329144572060,18.3874
1329144632060,18.3480
1329144692060,18.3488
1329144752060,18.3742
1329144812060,18.3955
1329144872060,18.4210
1329144932060,18.3755
1329144992060,18.3811
1329145052060,18.3681
1329145112060,18.3864
1329145172060,18.3512
1329145232071,18.3721
1329145292071,18.3617
1329145352071,18.3516
1329145412071,18.4084
1329145472071,18.3535
1329145532071,18.3671
1329145592071,18.3934
1329145652071,18.3921
1329145712071,18.4084
1329145772071,18.3442
1329145832071,18.3829
1329145892071,18.3996
1329145952071,18.3532
1329146012071,18.4177
1329146072071,18.3926
1329146132071,18.3769
1329146192071,18.3358
1329146252071,18.4029
1329146312071,18.4378
1329146372071,18.4367
1329146432071,18.4138
1329146492071,18.4334
1329146552071,18.4037
1329146612071,18.3873
1329146672071,18.4107
1329146732071,18.4242
1329146792071,18.4495
1329146852071,18.4391
1329146912071,18.4387
1329146972071,18.4362
1329147032071,18.4404
1329147092071,18.3761
1329147152071,18.4321
1329147212071,18.3795
1329147272071,18.3837
1329147332071,18.3527
1329147392071,18.4263
1329147452071,18.4010
1329147512071,18.4344
1329147572071,18.4108
1329147632071,18.4601
1329147692071,18.4312
1329147752071,18.3651
1329147812071,18.4060
1329147872071,18.3972
1329147932071,18.3606
1329147992071,18.4477
1329148052071,18.3930
1329148112071,18.4410
1329148172071,18.3890
1329148232071,18.3724
1329148292071,18.4045
1329148352071,18.4196
1329148412071,18.4308
1329148472071,18.3753
1329148532071,18.3866
1329148592071,18.4112
1329148652071,18.4101
1329148712071,18.4147
1329148772071,18.3689
1329148832083,18.3862
1329148892083,18.4240
1329148952083,18.4350
1329149012083,18.4257
1329149072083,18.4683
1329149132083,18.4679
1329149192083,18.4745
1329149252083,18.4430
1329149312083,18.4021
1329149372083,18.4064
1329149432083,18.4102
1329149492083,18.4556
1329149552083,18.4001
1329149612083,18.4207
1329149672083,18.4214
1329149732083,18.4052
1329149792083,18.3671
1329149852083,18.4187
1329149912083,18.3655
1329149972083,18.4182
1329150032083,18.3796
1329150092083,18.3817
1329150152083,18.4257
1329150212083,18.3893
1329150272083,18.4602
1329150332083,18.4118
1329150392083,18.3700
1329150452083,18.4086
1329150512083,18.4245
1329150572083,18.4326
1329150632083,18.4561
1329150692083,18.4400
1329150752083,18.4382
1329150812083,18.4214
1329150872083,18.4682
1329150932083,18.4516
1329150992083,18.4331
1329151052083,18.4034
1329151112083,18.3671
1329151172083,18.4240
1329151232083,18.3900
1329151292083,18.4424
1329151352083,18.4549
1329151412083,18.4535
1329151472083,18.4315
1329151532083,18.4711
1329151592083,18.3937
1329151652083,18.4180
1329151712083,18.4595
1329151772083,18.4752
1329151832083,18.4407
1329151892083,18.4950
1329151952083,18.4702
1329152012083,18.4394
1329152072083,18.4236
1329152132083,18.4673
1329152192083,18.4018
1329152252083,18.5997
1329152312083,18.3922
1329152372083,18.4197
1329152432094,18.4182
1329152492094,18.4469
1329152552094,18.4207
1329152612094,18.4349
1329152672094,18.4254
1329152732094,18.5010
1329152792094,18.4182
1329152852094,18.3575
1329152912094,18.3815
1329152972094,18.3955
1329153032094,18.3509
1329153092094,18.4487
1329153152094,18.4113
1329153212094,18.4289
1329153272094,18.4113
1329153332094,18.4320
1329153392094,18.4733
1329153452094,18.4258
1329153512094,18.4328
1329153572094,18.4259
1329153632094,18.3994
1329153692094,18.4284
1329153752094,18.3676
1329153812094,18.3667
1329153872094,18.3916
1329153932094,18.3778
1329153992094,18.4042
1329154052094,18.3856
1329154112094,18.3455
1329154172094,18.3428
1329154232094,18.3853
1329154292094,18.3964
1329154352094,18.3711
1329154412094,18.3841
1329154472094,18.3554
1329154532094,18.3376
1329154592094,18.3650
1329154652094,18.3389
1329154712094,18.3656
1329154772094,18.3544
1329154832094,18.3731
1329154892094,18.4062
1329154952094,18.4348
1329155012094,18.3646
1329155072094,18.4527
1329155132094,18.3935
1329155192094,18.3913
1329155252094,18.4178
1329155312094,18.3814
1329155372094,18.4262
1329155432094,18.4049
1329155492094,18.3745
1329155552094,18.4189
1329155612094,18.3364
1329155672094,18.4064
1329155732094,18.3652
1329155792094,18.3821
1329155852094,18.3933
1329155912094,18.4483
1329155972094,18.4569
1329156032105,18.5010
1329156092105,18.3970
1329156152105,18.4716
1329156212105,18.3661
1329156272105,18.4483
1329156332105,18.4160
1329156392105,18.4355
1329156452105,18.3750
1329156512105,18.3807
1329156572105,18.4007
1329156632105,18.4257
1329156692105,18.4228
1329156752105,18.3548
1329156812105,18.3874
1329156872105,18.4014
1329156932105,18.4329
1329156992105,18.3796
1329157052105,18.3895